Volver al catálogo

STARLINK-32570

ActivoComunicacionesVLEO
NORAD 62137·PAYLOAD·🇺🇸 United States

Lanzado Nov 27, 2024 desde Cape Canaveral Space Force Station

Loading…

Próximos Pases (próximas 24 horas)

TLE

ActualizadoSource: CelesTrak SupGP

Época: Sep 14, 2026, 22:40 UTC

1 62137C 24222Z   26257.94493056 -.00034737  00000+0 -12581-2 0  2574
2 62137  43.0026 147.3785 0001415 271.5904  64.9924 15.27596269    17

Sigue STARLINK-32570 en tiempo real con AllMySat

Download on the App Store